Regional Weather Roundup
Issued by NWS Goodland, KS

Home | Current Version | Previous Version | Graphics & Text | Print | Product List | Glossary On
Versions: 1 2 3 4 5 6 7 8 9 10 11 12 13 14 15 16 17 18 19 20 21 22 23 24 25 26 27 28 29 30 31 32 33 34 35 36 37 38 39 40 41 42 43 44 45 46 47 48 49 50
000
ASUS43 KGLD 272059
RWRGLD

GOODLAND FORECAST AREA HOURLY WEATHER ROUNDUP
NATIONAL WEATHER SERVICE GOODLAND KS
300 PM MDT FRI MAY 27 2016

...OFFICIAL OBSERVATIONS...

CITY           SKY/WX    TMP DP  RH WIND       PRES   REMARKS
GOODLAND KS    CLOUDY    61  55  81 NE15G23   29.74S
HILL CITY KS   CLOUDY    63  58  83 NE12      29.71F
IMPERIAL NEB   LGT RAIN  59  54  83 N9        29.78F
MCCOOK NEB     CLOUDY    63  55  75 E14       29.73F
AKRON CO       MOSUNNY   60  46  59 N30G40    29.85S
BURLINGTON CO  LGT RAIN  58  52  80 NE9       29.76F
LIMON CO       LGT RAIN  53  47  79 N21G26    29.86S
$$

...UNOFFICIAL OBSERVATIONS...

CITY           SKY/WX    TMP DP  RH WIND       PRES   REMARKS
GOVE KS          N/A     66  32  28 MISG        N/A
LENORA KS        N/A     61  32  33 MISG        N/A
SHARON SPRINGS   N/A     64  54  69 NE20G29     N/A
TRIBUNE KS     CLOUDY    63  54  72 SE7G21    29.69
KIT CARSON CO    N/A     56  46  69 MISG        N/A
YUMA CO          N/A     58  50  74 NE10G17     N/A
$$



USA.gov is the U.S. government's official web portal to all federal, state and local government web resources and services.